[[{"header":{"parameterUnit":"m.s-1","parameterCategory":1,"la1":30.2991,"la2":30.254,"lo1":-89.0895,"lo2":-89.0444,"dy":0.0017,"dx":0.0017,"nx":28,"ny":28,"refTime":"2025-07-25T09:00:00:Z","depth":0,"parameterNumber":2,"parameterNumberName":"U-component_of_WINDS"},"data":[0,0,0,0,0,0,0,0,0,0,0,0,0,0,0,0,0,0,0,0,0,0,0,0,0,0,0,0,0,0,0,0,0,0,0,0,0,0,0,0,0,0,0,0,0,0,0,0,0,0,0,0,0,0,0,0,0,0,-1.507,-1.507,0,-1.5039,-1.5039,-1.5039,-1.5005,-1.5005,-1.5004,-1.5004,-1.4972,-1.4972,-1.4971,0,0,0,0,0,0,0,0,0,0,0,0,0,-1.5103,-1.5102,-1.507,-1.507,-1.507,-1.5039,-1.5039,-1.5038,-1.5006,-1.5005,-1.5004,-1.5004,-1.4972,-1.4972,-1.4971,0,0,0,0,0,0,0,0,0,0,0,0,0,-1.5082,-1.5102,-1.507,-1.5049,-1.5047,-1.5039,-1.5039,-1.5038,-1.5006,-1.5005,-1.5004,-1.5004,-1.4972,-1.4972,-1.4971,-1.4981,0,0,-1.4969,-1.4969,0,0,0,0,0,0,0,0,-1.5083,-1.5081,-1.5053,-1.5051,-1.5048,-1.5025,-1.5039,-1.5019,-1.5006,-1.5021,-1.5004,-1.5003,-1.499,-1.4988,-1.4984,-1.498,-1.4978,-1.4969,-1.4969,-1.4968,-1.4968,0,0,0,0,0,0,0,-1.5085,-1.5082,-1.5058,-1.5053,-1.505,-1.5042,-1.5038,-1.5035,-1.501,-1.502,-1.5018,-1.5014,-1.4989,-1.4985,-1.4983,-1.4978,-1.4969,-1.4969,-1.4968,-1.4968,-1.4983,-1.4983,0,0,0,0,0,0,-1.5089,-1.5083,-1.5059,-1.5057,-1.5064,-1.5042,-1.5038,-1.5034,-1.501,-1.5006,-1.5015,-1.5013,-1.4986,-1.4984,-1.4982,-1.4993,-1.4968,-1.4968,-1.4968,-1.4982,-1.4983,-1.4984,0,0,0,0,0,0,-1.509,-1.5087,-1.506,-1.507,-1.5066,-1.5042,-1.5038,-1.5033,-1.5029,-1.5006,-1.5002,-1.5015,-1.4985,-1.4983,-1.4982,-1.4991,-1.4968,-1.4967,-1.4981,-1.4982,-1.4983,-1.5015,0,0,0,0,0,0,-1.5091,-1.5088,-1.5091,-1.507,-1.5065,-1.5061,-1.5038,-1.5033,-1.5028,-1.5025,-1.5005,-1.5001,-1.4985,-1.4983,-1.4981,-1.499,-1.4967,-1.498,-1.4982,-1.4983,-1.5013,-1.5017,-1.502,0,0,0,0,0,-1.5092,-1.51,-1.5091,-1.5088,-1.5068,-1.5061,-1.5059,-1.5039,-1.5029,-1.5032,-1.5018,-1.5002,-1.4991,-1.4983,-1.4981,-1.499,-1.4979,-1.4981,-1.4983,-1.5011,-1.5016,-1.502,0,0,0,0,0,0,-1.5122,-1.5097,-1.5086,-1.5088,-1.5077,-1.5056,-1.5059,-1.5045,-1.5037,-1.5034,-1.5011,-1.5007,-1.501,-1.5,-1.4992,-1.4999,-1.4983,-1.4984,-1.5005,-1.501,-1.5014,-1.5015,-1.4966,0,0,0,0,0,-1.5129,-1.5125,-1.5104,-1.5107,-1.5102,-1.5082,-1.5078,-1.5065,-1.5052,-1.5047,-1.5033,-1.5022,-1.5016,-1.5013,-1.5006,-1.5012,-1.5008,-1.5017,-1.5021,-1.5024,-1.5025,-1.5029,-1.5033,-1.4989,-1.4989,-1.4989,0,0,-1.5143,-1.5129,-1.5127,-1.5113,-1.5103,-1.51,-1.5078,-1.5075,-1.5073,-1.5047,-1.5045,-1.5035,-1.5021,-1.5025,-1.5025,-1.5016,-1.5037,-1.5026,-1.5029,-1.5028,-1.5031,-1.5035,-1.5039,-1.4991,-1.499,-1.499,0,0,-1.5166,-1.5155,-1.5157,-1.5148,-1.5134,-1.5121,-1.5121,-1.5103,-1.5095,-1.5094,-1.5075,-1.5072,-1.5062,-1.5054,-1.5048,-1.5072,-1.5057,-1.507,-1.509,-1.5094,-1.5097,-1.51,-1.5109,-1.5112,-1.5072,-1.5072,-1.5072,0,-1.5185,-1.5179,-1.516,-1.5159,-1.5154,-1.5131,-1.5134,-1.5126,-1.511,-1.5108,-1.5098,-1.5087,-1.5076,-1.5077,-1.5084,-1.508,-1.508,-1.5072,-1.5098,-1.5101,-1.5103,-1.5112,-1.5115,-1.5074,-1.5073,-1.5073,-1.5073,0,-1.5203,-1.52,-1.5204,-1.519,-1.5185,-1.5186,-1.5168,-1.5166,-1.5154,-1.5142,-1.5142,-1.5129,-1.512,-1.5119,-1.5107,-1.512,-1.5115,-1.5102,-1.5085,-1.511,-1.5117,-1.512,-1.5076,-1.5076,-1.5075,-1.5075,0,0,-1.5242,-1.522,-1.5221,-1.5215,-1.5199,-1.5197,-1.5198,-1.5189,-1.5188,-1.5179,-1.5179,-1.5173,-1.5162,-1.5156,-1.5143,-1.5147,-1.5167,-1.5134,-1.5133,-1.514,-1.5182,-1.5191,-1.5195,-1.5158,-1.5159,-1.5159,-1.5183,0,-1.5262,-1.5262,-1.5246,-1.525,-1.5248,-1.5228,-1.5229,-1.522,-1.521,-1.5207,-1.5196,-1.5192,-1.5177,-1.5173,-1.5176,-1.5164,-1.5175,-1.5163,-1.5159,-1.5159,-1.5162,-1.5198,-1.5208,-1.523,-1.5186,-1.5186,-1.5186,0,-1.5285,-1.5278,-1.5283,-1.5268,-1.5267,-1.5268,-1.526,-1.5257,-1.5247,-1.524,-1.5234,-1.522,-1.5221,-1.5206,-1.5208,-1.5199,-1.5197,-1.5192,-1.5192,-1.519,-1.5173,-1.5197,-1.5237,-1.5241,-1.5191,-1.519,-1.519,0,-1.5313,-1.5305,-1.5307,-1.5303,-1.5286,-1.5288,-1.5281,-1.527,-1.5267,-1.5261,-1.5258,-1.5252,-1.5249,-1.5245,-1.523,-1.522,-1.5234,-1.5217,-1.5228,-1.5228,-1.523,-1.523,-1.527,-1.523,-1.523,-1.523,-1.523,0,-1.5337,-1.5341,-1.532,-1.5321,-1.5325,-1.5308,-1.5312,-1.5303,-1.5295,-1.5294,-1.5277,-1.5278,-1.5258,-1.5257,-1.5245,-1.5249,-1.5247,-1.5242,-1.5238,-1.5243,-1.5243,-1.524,-1.5238,-1.5231,-1.5231,-1.523,-1.523,0,-1.5368,-1.5354,-1.5355,-1.534,-1.5337,-1.534,-1.5328,-1.5329,-1.5319,-1.5319,-1.5318,-1.5302,-1.5299,-1.5285,-1.5279,-1.5271,-1.5279,-1.5272,-1.5282,-1.528,-1.5291,-1.529,-1.533,-1.5334,-1.5292,-1.5293,-1.5293,0,-1.5384,-1.5386,-1.5372,-1.5371,-1.5365,-1.5363,-1.5361,-1.5345,-1.5343,-1.5333,-1.5335,-1.5332,-1.5328,-1.5325,-1.5313,-1.5309,-1.5302,-1.5317,-1.5301,-1.5306,-1.5303,-1.5303,-1.5303,-1.5319,-1.532,-1.532,-1.5321,0,-1.5414,-1.5407,-1.5404,-1.5399,-1.5396,-1.5391,-1.5385,-1.5385,-1.5368,-1.5367,-1.5364,-1.5362,-1.5356,-1.5353,-1.5348,-1.5341,-1.5328,-1.5326,-1.5328,-1.5332,-1.5338,-1.5335,-1.529,-1.5325,-1.5324,-1.5324,-1.5324,-1.5324,-1.5437,-1.5439,-1.543,-1.5428,-1.5422,-1.5417,-1.5418,-1.5409,-1.5407,-1.5401,-1.5392,-1.5392,-1.5384,-1.5375,-1.537,-1.5369,-1.5362,-1.5365,-1.5366,-1.5367,-1.5369,-1.5339,-1.5368,-1.5368,-1.5368,-1.5368,-1.5368,0,-1.5466,-1.546,-1.5458,-1.5451,-1.5449,-1.5439,-1.5432,-1.5432,-1.5431,-1.5425,-1.5422,-1.5421,-1.5418,-1.5407,-1.5404,-1.5406,-1.54,-1.5405,-1.5405,-1.5404,-1.5376,-1.5374,-1.541,-1.541,-1.541,-1.541,-1.541,-1.541,-1.5481,-1.5484,-1.5477,-1.5478,-1.5472,-1.5471,-1.5469,-1.5465,-1.546,-1.5459,-1.5457,-1.545,-1.5443,-1.5439,-1.5437,-1.5434,-1.5433,-1.5441,-1.5436,-1.541,-1.5406,-1.5402,-1.54,-1.5441,-1.5441,-1.5464,-1.5464,-1.5464]},{"header":{"parameterUnit":"m.s-1","parameterCategory":1,"la1":30.2991,"la2":30.254,"lo1":-89.0895,"lo2":-89.0444,"dy":0.0017,"dx":0.0017,"nx":28,"ny":28,"refTime":"2025-07-25T09:00:00:Z","depth":0,"parameterNumber":3,"parameterNumberName":"V-component_of_WINDS"},"data":[0,0,0,0,0,0,0,0,0,0,0,0,0,0,0,0,0,0,0,0,0,0,0,0,0,0,0,0,0,0,0,0,0,0,0,0,0,0,0,0,0,0,0,0,0,0,0,0,0,0,0,0,0,0,0,0,0,0,4.8638,4.8637,0,4.8534,4.8532,4.8531,4.8472,4.8471,4.8471,4.8471,4.8358,4.8355,4.8353,0,0,0,0,0,0,0,0,0,0,0,0,0,4.878,4.8777,4.8638,4.8637,4.8635,4.8534,4.8532,4.8531,4.8472,4.8471,4.8471,4.8471,4.8359,4.8356,4.8352,0,0,0,0,0,0,0,0,0,0,0,0,0,4.8701,4.8777,4.8638,4.8594,4.8589,4.8534,4.8532,4.853,4.8472,4.8471,4.8471,4.8471,4.836,4.8356,4.8352,4.8332,0,0,4.8339,4.8337,0,0,0,0,0,0,0,0,4.8705,4.8696,4.8602,4.8597,4.8591,4.8515,4.8541,4.8464,4.8472,4.8516,4.8471,4.8471,4.841,4.8402,4.8383,4.8326,4.8321,4.8339,4.8336,4.8334,4.8333,0,0,0,0,0,0,0,4.8711,4.87,4.8596,4.86,4.8594,4.8577,4.8565,4.8526,4.8466,4.8512,4.8508,4.8496,4.8407,4.8387,4.838,4.832,4.8339,4.8335,4.8332,4.8331,4.824,4.824,0,0,0,0,0,0,4.8724,4.8705,4.86,4.8593,4.8649,4.8575,4.8562,4.854,4.8466,4.8455,4.8497,4.8494,4.8394,4.8385,4.8376,4.8346,4.8334,4.833,4.8328,4.824,4.824,4.824,0,0,0,0,0,0,4.8728,4.8716,4.8604,4.8648,4.8632,4.8573,4.8548,4.8538,4.8518,4.8455,4.8443,4.8487,4.8394,4.8381,4.8343,4.8341,4.8328,4.8324,4.824,4.824,4.824,4.8288,0,0,0,0,0,0,4.8732,4.8717,4.871,4.8648,4.863,4.8575,4.8548,4.8536,4.8511,4.8507,4.8443,4.8432,4.8393,4.835,4.8339,4.8335,4.8321,4.8239,4.824,4.824,4.8286,4.8289,4.8292,0,0,0,0,0,4.8737,4.8727,4.871,4.8698,4.8621,4.8575,4.8565,4.8522,4.8511,4.8503,4.8462,4.8434,4.8344,4.8346,4.8334,4.8329,4.8239,4.824,4.824,4.8284,4.8289,4.8292,0,0,0,0,0,0,4.8788,4.8718,4.8699,4.8668,4.8629,4.8565,4.8553,4.8528,4.8488,4.8485,4.8432,4.8418,4.8384,4.8352,4.8357,4.8304,4.8288,4.8286,4.8326,4.833,4.8333,4.8341,4.8318,0,0,0,0,0,4.8796,4.8767,4.8706,4.8685,4.8666,4.8614,4.8592,4.8563,4.8518,4.8501,4.8457,4.8414,4.8375,4.8351,4.8312,4.8281,4.8266,4.8271,4.8275,4.8278,4.8276,4.8256,4.8258,4.8241,4.8241,4.8241,0,0,4.8811,4.8769,4.8754,4.8694,4.866,4.8629,4.86,4.8568,4.8544,4.8495,4.8457,4.8423,4.8371,4.8336,4.8319,4.8309,4.8277,4.8278,4.8281,4.8277,4.8257,4.8258,4.826,4.8241,4.8241,4.8241,0,0,4.8823,4.879,4.8768,4.8735,4.8684,4.8649,4.8644,4.8585,4.8561,4.8523,4.8485,4.8454,4.839,4.8354,4.8327,4.8326,4.8298,4.8315,4.8331,4.8313,4.8314,4.8315,4.8313,4.8314,4.8314,4.8314,4.8314,0,4.8848,4.8803,4.876,4.8731,4.8705,4.8661,4.8637,4.8606,4.8545,4.8527,4.8518,4.8435,4.8397,4.8353,4.8353,4.8333,4.8324,4.8321,4.8318,4.8318,4.8318,4.8316,4.8316,4.8316,4.8316,4.8316,4.8315,0,4.8835,4.8804,4.8792,4.8736,4.8709,4.8683,4.8634,4.8611,4.8584,4.8549,4.8509,4.8462,4.8413,4.84,4.8373,4.8352,4.8347,4.8329,4.8311,4.8323,4.832,4.8319,4.8319,4.8319,4.8318,4.8317,0,0,4.8875,4.8797,4.8793,4.8767,4.8708,4.8682,4.8653,4.8607,4.8588,4.8546,4.852,4.8466,4.8449,4.8419,4.8386,4.837,4.8371,4.8353,4.8351,4.8357,4.8344,4.8357,4.8357,4.8353,4.8353,4.8352,4.8348,0,4.8878,4.8827,4.8787,4.875,4.872,4.8678,4.8652,4.8612,4.8579,4.8547,4.8509,4.8472,4.8453,4.8434,4.8416,4.8375,4.8368,4.8375,4.8325,4.8324,4.8339,4.8356,4.837,4.8368,4.8346,4.8346,4.8346,0,4.8875,4.8837,4.8798,4.8742,4.8727,4.8706,4.866,4.863,4.8583,4.856,4.8527,4.8494,4.846,4.8447,4.8397,4.8403,4.8381,4.8357,4.8356,4.8349,4.8335,4.8348,4.8367,4.8366,4.8344,4.8344,4.8344,0,4.8907,4.8846,4.8815,4.8794,4.8728,4.8713,4.8685,4.8638,4.8612,4.8572,4.8554,4.851,4.8485,4.845,4.8405,4.84,4.836,4.8343,4.8338,4.8339,4.833,4.8331,4.8345,4.8318,4.8318,4.8318,4.8318,0,4.8914,4.8891,4.8828,4.8809,4.8781,4.8735,4.8709,4.8676,4.8635,4.8606,4.8567,4.8541,4.8484,4.845,4.8415,4.8379,4.8368,4.8347,4.8337,4.835,4.8352,4.8333,4.8332,4.8318,4.8318,4.8318,4.8318,0,4.8944,4.8902,4.8865,4.8806,4.8791,4.8773,4.8721,4.87,4.8665,4.863,4.8618,4.8563,4.8521,4.8474,4.8416,4.8392,4.8358,4.8345,4.8375,4.8369,4.8366,4.8367,4.8367,4.8364,4.8341,4.8341,4.8341,0,4.8951,4.8933,4.8873,4.8852,4.8825,4.8792,4.8767,4.872,4.8695,4.864,4.8624,4.858,4.8543,4.8478,4.8431,4.8386,4.8371,4.8374,4.8363,4.8376,4.8369,4.8371,4.8368,4.8376,4.8377,4.8377,4.8378,0,4.8967,4.8947,4.8913,4.8872,4.8843,4.8807,4.877,4.8754,4.87,4.8673,4.8631,4.8602,4.8544,4.85,4.8449,4.8417,4.8388,4.8382,4.8378,4.839,4.8407,4.8396,4.8381,4.8381,4.8381,4.8381,4.8381,4.838,4.8985,4.8966,4.8922,4.8884,4.8852,4.8818,4.8795,4.8758,4.8723,4.8673,4.8647,4.8606,4.8558,4.8487,4.8456,4.8422,4.8412,4.8406,4.8405,4.8404,4.8407,4.8414,4.8412,4.8412,4.8412,4.8412,4.8412,0,4.8998,4.8967,4.8934,4.8884,4.8854,4.8832,4.8789,4.8765,4.873,4.8689,4.8653,4.8604,4.8561,4.8512,4.8465,4.8447,4.8432,4.8436,4.8436,4.8429,4.8419,4.8427,4.8449,4.8449,4.8449,4.8449,4.8449,4.8449,4.9001,4.8968,4.8943,4.8893,4.8862,4.8823,4.88,4.8768,4.8735,4.8683,4.8648,4.8617,4.8572,4.8522,4.8481,4.8467,4.8451,4.8459,4.8441,4.8433,4.843,4.8427,4.8433,4.8456,4.8456,4.8453,4.8453,4.8453]}]]